logo
App data

Anode

Anode reintroduces the classic falling-block puzzle genre, with new twists and challenges! Link blocks back and forth across each other. Match angled couplers to create chains of multiple colors. Play Mission Mode and complete randomly-generated objectives for more challenge!
Store | Hub | SteamDB | Site
Developer: Kittehface Software Publisher: Kittehface Software
Genre: Action, Casual, Indie
Languages: English, German, Spanish - Spain, Japanese, Korean, Russian, Turkish
Tags: Casual (25), Action (23), Indie (23), Puzzle (20), Competitive (15), Local Multiplayer (15), Arcade (11), 2D (10), Colorful (9)
Category: Single-player, Multi-player, Steam Achievements, Full controller support, Steam Trading Cards, Steam Cloud, Steam Leaderboards, Remote Play on TV
Release date: Oct 5, 2015
Price: $1.99 50%
Old userscore: 88% Owners: 20,000 .. 50,000
Followers: 316
Peak concurrent players yesterday: 1

Steam Spy is still in beta, so expect major bugs.

Owners data:

Access restricted.

This feature is only available to users with special access rights. Sorry.

If you want to proceed, you need to register or log in first and then back Steam Spy on Patreon. Look for Indie or Pro pledge.

Don't forget to use the same email as on Steam Spy!

If you've recently backed Steam Spy on Patreon, please note, that it might take around 15 minutes for your access rights to sync. In most cases you'll need to re-login on Steam Spy too.

Audience in 2 weeks:

Access restricted.

This feature is only available to users with special access rights. Sorry.

If you want to proceed, you need to register or log in first and then back Steam Spy on Patreon. Look for Indie or Pro pledge.

Don't forget to use the same email as on Steam Spy!

If you've recently backed Steam Spy on Patreon, please note, that it might take around 15 minutes for your access rights to sync. In most cases you'll need to re-login on Steam Spy too.

Peak daily concurrent players:

CCU data courtesy of SteamDB. Used with permission.

Hourly concurrent players:

Daily Twitch stats:

Hourly Twitch stats:

Followers over time

Access restricted.

This feature is only available to users with special access rights. Sorry.

If you want to proceed, you need to register or log in first and then back Steam Spy on Patreon. Look for Indie or Pro pledge.

Don't forget to use the same email as on Steam Spy!

If you've recently backed Steam Spy on Patreon, please note, that it might take around 15 minutes for your access rights to sync. In most cases you'll need to re-login on Steam Spy too.

Views for top 50 videos on YouTube for this game:

Games similar to this one:

# Game Release date
Price
Score rank
(Userscore / Metascore)
Owners
Players
Playtime (Median)
1 Recursion Deluxe Feb 12, 2016 $0.74N/A (N/A)0 .. 20,0000%00:00 (00:00)
2 Hyposphere May 5, 2016 $0.59N/A (N/A)200,000 .. 500,0000%00:00 (00:00)
3 Reptilian Rebellion Aug 8, 2016 $2.99N/A (N/A)50,000 .. 100,0000%00:00 (00:00)
4 Forgotten, Not Lost - A Kinetic Novel Apr 2, 2016 $1.99N/A (N/A)20,000 .. 50,0000%00:00 (00:00)
5 Burst Mar 14, 2016 N/AN/A (N/A)20,000 .. 50,0000%00:00 (00:00)
6 Hustle Cat Mar 16, 2016 $2.99N/A (N/A)50,000 .. 100,0000%00:00 (00:00)
7 RePete Nov 1, 2015 $1.99N/A (N/A)0 .. 20,0000%00:00 (00:00)
8 Broken Dreams Feb 19, 2016 $0.99N/A (N/A)500,000 .. 1,000,0000%00:00 (00:00)
9 Goodnight Butcher Dec 18, 2015 $1.99N/A (N/A)0 .. 20,0000%00:00 (00:00)
10 King's Guard TD Jun 8, 2016 $1.19N/A (N/A)200,000 .. 500,0000%00:00 (00:00)
11 Air Missions: HIND Mar 21, 2016 $8.49N/A (N/A)20,000 .. 50,0000%00:00 (00:00)
12 SquareCells Dec 7, 2015 $0.89N/A (N/A)50,000 .. 100,0000%00:00 (00:00)
13 Loot Hound Nov 17, 2015 $5.99N/A (N/A)0 .. 20,0000%00:00 (00:00)
14 The Last NightMary - A Lenda do Cabeça de Cuia Nov 2, 2015 $3.99N/A (N/A)50,000 .. 100,0000%00:00 (00:00)
15 Lift It Jan 20, 2017 $4.99N/A (N/A)50,000 .. 100,0000%00:00 (00:00)
16 12 Labours of Hercules IV: Mother Nature (Platinum Edition) Dec 25, 2015 $1.49N/A (N/A)20,000 .. 50,0000%00:00 (00:00)
17 Labyrinth Simulator Sep 21, 2015 $0.49N/A (N/A)0 .. 20,0000%00:00 (00:00)
18 The Deletion Jul 30, 2015 $0.49N/A (N/A)20,000 .. 50,0000%00:00 (00:00)
19 Where are my Internets? Dec 16, 2016 $1.49N/A (N/A)20,000 .. 50,0000%00:00 (00:00)
20 Dungeon Painter Studio Feb 26, 2017 $14.99N/A (N/A)50,000 .. 100,0000%00:00 (00:00)
21 Ninja Stealth 2 Jan 30, 2017 $0.99N/A (N/A)50,000 .. 100,0000%00:00 (00:00)
22 Winexy Jan 13, 2017 $0.49N/A (N/A)50,000 .. 100,0000%00:00 (00:00)
23 iREC Jan 16, 2017 $0.5N/A (N/A)100,000 .. 200,0000%00:00 (00:00)
24 Neon Prism Nov 18, 2016 $1.09N/A (N/A)100,000 .. 200,0007.69%04:46 (01:35)
25 The Survey Oct 27, 2016 $0.99N/A (N/A)50,000 .. 100,0000%00:00 (00:00)
26 Archimedes Oct 6, 2016 $1.99N/A (N/A)20,000 .. 50,0000%00:00 (00:00)
27 Turbo Pug 3D Sep 20, 2016 $0.99N/A (N/A)200,000 .. 500,0000%00:00 (00:00)
28 Collisions Jul 28, 2015 $3.99N/A (N/A)50,000 .. 100,0000%00:00 (00:00)
29 Football Blitz Jan 4, 2017 N/AN/A (N/A)0 .. 20,0000%00:00 (00:00)
30 Optika Aug 26, 2016 $3.24N/A (N/A)0 .. 20,0000%00:00 (00:00)
31 Clock Simulator Jul 20, 2016 N/AN/A (N/A)0 .. 20,0000%00:00 (00:00)
32 ConflictCraft Dec 8, 2016 $0.49N/A (N/A)100,000 .. 200,0000%00:00 (00:00)
33 Totally Unbalanced Jul 29, 2016 FreeN/A (N/A)50,000 .. 100,0000%00:00 (00:00)
34 Magma Tsunami Jun 1, 2016 $0.99N/A (N/A)200,000 .. 500,0000%00:00 (00:00)
35 hackmud Sep 22, 2016 $14.99N/A (N/A)20,000 .. 50,0000%00:00 (00:00)
36 Wildlife Park 2 - Dino World Mar 30, 2012 $2.79N/A (N/A)20,000 .. 50,0000%00:00 (00:00)
37 Bob Was Hungry Aug 19, 2015 $0.99N/A (N/A)50,000 .. 100,0000%00:00 (00:00)
38 12 Labours of Hercules Mar 23, 2015 $1.49N/A (N/A)100,000 .. 200,0000%00:00 (00:00)
39 Marble Duel: Sphere-Matching Tactical Fantasy Nov 12, 2015 $2.24N/A (N/A)50,000 .. 100,0000%00:00 (00:00)
40 The Jackbox Party Pack Nov 26, 2014 $12.49N/A (N/A)200,000 .. 500,0000%00:00 (00:00)
41 Sinister City Oct 18, 2014 $0.49N/A (N/A)100,000 .. 200,0000%00:00 (00:00)
42 Laserlife Sep 22, 2015 $9.99N/A (N/A)20,000 .. 50,0000%00:00 (00:00)
43 A Good Snowman Is Hard To Build Feb 25, 2015 $2.99N/A (N/A)50,000 .. 100,0000%00:00 (00:00)
44 Bloop Reloaded Feb 6, 2015 FreeN/A (N/A)100,000 .. 200,0000%00:00 (00:00)
45 Pixel Puzzles 2: Birds Feb 20, 2015 $0.74N/A (N/A)100,000 .. 200,0000%00:00 (00:00)
46 Cyto Jul 10, 2014 $3.99N/A (N/A)20,000 .. 50,0000%00:00 (00:00)
47 European Ship Simulator Nov 4, 2016 $9.99N/A (N/A)100,000 .. 200,0000%00:00 (00:00)
48 On Rusty Trails Jun 13, 2016 $1.29N/A (N/A/77%)20,000 .. 50,0000%00:00 (00:00)
49 Tribloos 2 Jan 12, 2013 $4.99N/A (N/A)100,000 .. 200,0000%00:00 (00:00)
50 Girls Like Robots Feb 14, 2014 $4.89N/A (N/A)100,000 .. 200,0000%00:00 (00:00)
51 Dead Man's Draw Feb 6, 2014 $3.49N/A (N/A)50,000 .. 100,0000%00:00 (00:00)
52 Oozi: Earth Adventure Dec 5, 2013 $9.99N/A (N/A/66%)20,000 .. 50,0000%00:00 (00:00)
53 Governor of Poker 2 - Premium Edition Oct 11, 2010 $7.99N/A (N/A)20,000 .. 50,0000%00:00 (00:00)
54 Power of Love Jul 21, 2015 $0.49N/A (N/A)20,000 .. 50,0000%00:00 (00:00)
55 Robot vs Birds Zombies Jun 1, 2013 $0.99N/A (N/A)500,000 .. 1,000,0000%00:00 (00:00)
56 In Between Aug 21, 2015 $1.79N/A (N/A/68%)50,000 .. 100,0000%00:00 (00:00)
57 Alpha Runner Sep 2, 2015 $0.49N/A (N/A)100,000 .. 200,0000%00:00 (00:00)
58 Wanda - A Beautiful Apocalypse Jun 3, 2016 $1.99N/A (N/A)100,000 .. 200,0000%00:00 (00:00)
59 Job the Leprechaun Jul 31, 2015 $2.99N/A (N/A)50,000 .. 100,0000%00:00 (00:00)
60 Star Chronicles: Delta Quadrant Jul 7, 2015 $0.99N/A (N/A)200,000 .. 500,0000%00:00 (00:00)
61 Koala Kids Jun 22, 2015 $0.49N/A (N/A)100,000 .. 200,0000%00:00 (00:00)
62 Fate Tectonics Sep 9, 2015 $0.49N/A (N/A)20,000 .. 50,0000%00:00 (00:00)
63 Thrillville: Off the Rails Oct 9, 2007 $3.49N/A (N/A/70%)20,000 .. 50,0000%00:00 (00:00)
64 Beat Da Beat Mar 10, 2016 $1.99N/A (N/A)20,000 .. 50,0000%00:00 (00:00)
65 The Reject Demon: Toko Chapter 0 — Prelude May 9, 2015 $4.99N/A (N/A)20,000 .. 50,0000%00:00 (00:00)
66 Alter World May 29, 2015 $0.99N/A (N/A)200,000 .. 500,0000%00:00 (00:00)
67 Pester Jan 25, 2013 $0.49N/A (N/A)100,000 .. 200,0000%00:00 (00:00)
68 Chip's Challenge 2 May 28, 2015 $1.24N/A (N/A)20,000 .. 50,0000%00:00 (00:00)
69 Racecraft Mar 4, 2016 FreeN/A (N/A)20,000 .. 50,0000%00:00 (00:00)
70 Streets of Chaos Jan 23, 2015 N/AN/A (N/A)100,000 .. 200,0000%00:00 (00:00)

Tags over time:

Access restricted.

This feature is only available to users with special access rights. Sorry.

If you want to proceed, you need to register or log in first and then back Steam Spy on Patreon. Look for Indie or Pro pledge.

Don't forget to use the same email as on Steam Spy!

If you've recently backed Steam Spy on Patreon, please note, that it might take around 15 minutes for your access rights to sync. In most cases you'll need to re-login on Steam Spy too.

Owners of this game also own:

Access restricted.

This feature is only available to users with special access rights. Sorry.

If you want to proceed, you need to register or log in first and then back Steam Spy on Patreon. Look for Indie or Pro pledge.

Don't forget to use the same email as on Steam Spy!

If you've recently backed Steam Spy on Patreon, please note, that it might take around 15 minutes for your access rights to sync. In most cases you'll need to re-login on Steam Spy too.

Playtime distribution:

Access restricted.

This feature is only available to users with special access rights. Sorry.

If you want to proceed, you need to register or log in first and then back Steam Spy on Patreon. Look for Indie or Pro pledge.

Don't forget to use the same email as on Steam Spy!

If you've recently backed Steam Spy on Patreon, please note, that it might take around 15 minutes for your access rights to sync. In most cases you'll need to re-login on Steam Spy too.

Playtime (2 weeks):

Access restricted.

This feature is only available to users with special access rights. Sorry.

If you want to proceed, you need to register or log in first and then back Steam Spy on Patreon. Look for Indie or Pro pledge.

Don't forget to use the same email as on Steam Spy!

If you've recently backed Steam Spy on Patreon, please note, that it might take around 15 minutes for your access rights to sync. In most cases you'll need to re-login on Steam Spy too.

User reviews:

Login required.

Please register or log in to see this information.